2016-09-07 00:07:20 r, 18.72m,0000000003Hz,0000159159c,0000000.345s, 029.3C,00002195
2016-09-07 00:17:19 r, 18.72m,0000000003Hz,0000160072c,0000000.347s, 029.3C,00002195
2016-09-07 00:27:19 r, 18.72m,0000000003Hz,0000160125c,0000000.347s, 029.0C,00002195
2016-09-07 00:37:22 r, 18.72m,0000000003Hz,0000159330c,0000000.346s, 029.0C,00002195
2016-09-07 00:47:19 r, 18.72m,0000000003Hz,0000159296c,0000000.346s, 029.0C,00002195
2016-09-07 00:57:19 r, 18.73m,0000000003Hz,0000161264c,0000000.350s, 029.0C,00002195
2016-09-07 01:07:19 r, 18.74m,0000000003Hz,0000163827c,0000000.356s, 029.0C,00002195
2016-09-07 01:17:19 r, 18.74m,0000000003Hz,0000163174c,0000000.354s, 028.6C,00002195
2016-09-07 01:27:19 r, 18.74m,0000000003Hz,0000162237c,0000000.352s, 028.6C,00002195
2016-09-07 01:37:19 r, 18.74m,0000000002Hz,0000162080c,0000000.352s, 028.6C,00002195
2016-09-07 01:47:19 r, 18.74m,0000000003Hz,0000162349c,0000000.352s, 028.6C,00002195
2016-09-07 01:57:19 r, 18.75m,0000000003Hz,0000164152c,0000000.356s, 028.3C,00002195
2016-09-07 02:07:20 r, 18.74m,0000000003Hz,0000163263c,0000000.354s, 028.3C,00002195
2016-09-07 02:17:19 r, 18.74m,0000000002Hz,0000163475c,0000000.355s, 028.3C,00002195
2016-09-07 02:27:19 r, 18.74m,0000000003Hz,0000163282c,0000000.354s, 028.0C,00002195
2016-09-07 02:37:19 r, 18.74m,0000000002Hz,0000163187c,0000000.354s, 028.0C,00002195
2016-09-07 02:47:19 r, 18.75m,0000000003Hz,0000164127c,0000000.356s, 028.0C,00002195
2016-09-07 02:57:21 r, 18.75m,0000000003Hz,0000164316c,0000000.357s, 028.0C,00002195
2016-09-07 03:07:19 r, 18.76m,0000000003Hz,0000165100c,0000000.358s, 028.0C,00002195
2016-09-07 03:17:19 r, 18.76m,0000000003Hz,0000165151c,0000000.358s, 027.7C,00002195
2016-09-07 03:27:22 r, 18.75m,0000000002Hz,0000164467c,0000000.357s, 027.7C,00002195
2016-09-07 03:37:19 r, 18.68m,0000000003Hz,0000154528c,0000000.335s, 027.7C,00002195
2016-09-07 03:47:19 r, 18.67m,0000000003Hz,0000151602c,0000000.329s, 027.7C,00002195
2016-09-07 03:57:19 r, 18.73m,0000000003Hz,0000161322c,0000000.350s, 027.3C,00002195
2016-09-07 04:07:19 r, 18.66m,0000000003Hz,0000150833c,0000000.327s, 027.3C,00002195
2016-09-07 04:17:19 r, 17.65m,0000000008Hz,0000059527c,0000000.129s, 027.3C,00002195
2016-09-07 04:27:19 r, 17.96m,0000000006Hz,0000079686c,0000000.173s, 027.3C,00002195
2016-09-07 04:37:19 r, 18.67m,0000000003Hz,0000152008c,0000000.330s, 027.3C,00002195
2016-09-07 04:47:22 r, 18.72m,0000000003Hz,0000159282c,0000000.346s, 027.3C,00002195
2016-09-07 04:57:20 r, 18.70m,0000000003Hz,0000156855c,0000000.340s, 027.3C,00002195
2016-09-07 05:07:22 r, 18.70m,0000000003Hz,0000156520c,0000000.340s, 027.0C,00002195
2016-09-07 05:17:19 r, 18.68m,0000000003Hz,0000153648c,0000000.333s, 027.0C,00002195
2016-09-07 05:27:19 r, 18.63m,0000000003Hz,0000146730c,0000000.318s, 027.0C,00002195
2016-09-07 05:37:20 r, 18.48m,0000000004Hz,0000127738c,0000000.277s, 026.7C,00002195
2016-09-07 05:47:19 r, 18.05m,0000000005Hz,0000086120c,0000000.187s, 026.7C,00002195
2016-09-07 05:57:19 r, 17.15m,0000000012Hz,0000037582c,0000000.082s, 026.7C,00002195
2016-09-07 06:07:20 r, 15.78m,0000000042Hz,0000010708c,0000000.023s, 026.7C,00002195
2016-09-07 06:17:19 r, 13.85m,0000000256Hz,0000000000c,0000000.000s, 026.7C,00002195
2016-09-07 06:27:20 r, 11.72m,0000001821Hz,0000000000c,0000000.000s, 026.4C,00002195
2016-09-07 06:37:20 r, 09.79m,0000010830Hz,0000000000c,0000000.000s, 026.4C,00002195
2016-09-07 06:47:20 r, 08.28m,0000043374Hz,0000000000c,0000000.000s, 026.4C,00002195
2016-09-07 06:57:19 r, 07.21m,0000116199Hz,0000000000c,0000000.000s, 026.4C,00002195
2016-09-07 07:07:22 r, 06.17m,0000304074Hz,0000000000c,0000000.000s, 026.7C,00002195
2016-09-07 07:17:19 r, 05.99m,0000356806Hz,0000000000c,0000000.000s, 026.7C,00002195
2016-09-07 07:27:19 r, 00.00m,0000417062Hz,0000000000c,0000000.000s, 026.7C,00002195
2016-09-07 07:37:19 r, 00.00m,0000504920Hz,0000000000c,0000000.000s, 026.7C,00002195
2016-09-07 07:47:19 r, 00.00m,0000564017Hz,0000000000c,0000000.000s, 026.7C,00002195
2016-09-07 07:57:22 r, 00.00m,0000564079Hz,0000000000c,0000000.000s, 027.0C,00002195
2016-09-07 08:07:20 r, 00.00m,0000564062Hz,0000000000c,0000000.000s, 027.3C,00002195
2016-09-07 08:17:20 r, 00.00m,0000564035Hz,0000000000c,0000000.000s, 027.7C,00002195
2016-09-07 08:27:19 r, 00.00m,0000564177Hz,0000000000c,0000000.000s, 028.0C,00002195
2016-09-07 08:37:19 r, 00.00m,0000564296Hz,0000000000c,0000000.000s, 028.6C,00002195
2016-09-07 08:47:20 r, 00.00m,0000564350Hz,0000000000c,0000000.000s, 029.3C,00002195
2016-09-07 08:57:19 r, 00.00m,0000564456Hz,0000000000c,0000000.000s, 030.6C,00002195
2016-09-07 09:07:19 r, 00.00m,0000564631Hz,0000000000c,0000000.000s, 031.5C,00002195
2016-09-07 09:17:22 r, 00.00m,0000564733Hz,0000000000c,0000000.000s, 032.8C,00002195
2016-09-07 09:27:19 r, 00.00m,0000564885Hz,0000000000c,0000000.000s, 034.8C,00002195
2016-09-07 09:37:20 r, 00.00m,0000564915Hz,0000000000c,0000000.000s, 034.8C,00002195
2016-09-07 09:47:19 r, 00.00m,0000564838Hz,0000000000c,0000000.000s, 034.4C,00002195
2016-09-07 09:57:19 r, 00.00m,0000564808Hz,0000000000c,0000000.000s, 034.1C,00002195
2016-09-07 10:07:19 r, 00.00m,0000564933Hz,0000000000c,0000000.000s, 035.4C,00002195
2016-09-07 10:17:21 r, 00.00m,0000564921Hz,0000000000c,0000000.000s, 035.4C,00002195
2016-09-07 10:27:19 r, 00.00m,0000565029Hz,0000000000c,0000000.000s, 035.7C,00002195
2016-09-07 10:37:19 r, 00.00m,0000565269Hz,0000000000c,0000000.000s, 037.7C,00002195
2016-09-07 10:47:19 r, 00.00m,0000565409Hz,0000000000c,0000000.000s, 039.9C,00002195
2016-09-07 10:57:19 r, 00.00m,0000565525Hz,0000000000c,0000000.000s, 041.2C,00002195
2016-09-07 11:07:19 r, 00.00m,0000565611Hz,0000000000c,0000000.000s, 042.5C,00002195
2016-09-07 11:17:20 r, 00.00m,0000565508Hz,0000000000c,0000000.000s, 042.5C,00002195
2016-09-07 11:27:19 r, 00.00m,0000565557Hz,0000000000c,0000000.000s, 042.5C,00002195
2016-09-07 11:37:19 r, 00.00m,0000565462Hz,0000000000c,0000000.000s, 042.5C,00002195
2016-09-07 11:47:20 r, 00.00m,0000565600Hz,0000000000c,0000000.000s, 043.8C,00002195
2016-09-07 11:57:19 r, 00.00m,0000565767Hz,0000000000c,0000000.000s, 045.1C,00002195
2016-09-07 12:07:19 r, 00.00m,0000565813Hz,0000000000c,0000000.000s, 045.7C,00002195
2016-09-07 12:17:19 r, 00.00m,0000565780Hz,0000000000c,0000000.000s, 046.4C,00002195
2016-09-07 12:27:19 r, 00.00m,0000565824Hz,0000000000c,0000000.000s, 046.7C,00002195
2016-09-07 12:37:19 r, 00.00m,0000565902Hz,0000000000c,0000000.000s, 046.4C,00002195
2016-09-07 12:47:19 r, 00.00m,0000565850Hz,0000000000c,0000000.000s, 046.4C,00002195
2016-09-07 12:57:20 r, 00.00m,0000565698Hz,0000000000c,0000000.000s, 046.0C,00002195
2016-09-07 13:07:19 r, 00.00m,0000565804Hz,0000000000c,0000000.000s, 045.7C,00002195
2016-09-07 13:17:19 r, 00.00m,0000565709Hz,0000000000c,0000000.000s, 045.1C,00002195
2016-09-07 13:27:19 r, 00.00m,0000565650Hz,0000000000c,0000000.000s, 045.1C,00002195
2016-09-07 13:37:20 r, 00.00m,0000565748Hz,0000000000c,0000000.000s, 046.0C,00002195
2016-09-07 13:47:20 r, 00.00m,0000565730Hz,0000000000c,0000000.000s, 045.4C,00002195
2016-09-07 13:57:19 r, 00.00m,0000565714Hz,0000000000c,0000000.000s, 045.4C,00002195
2016-09-07 14:07:19 r, 00.00m,0000565811Hz,0000000000c,0000000.000s, 046.4C,00002195
2016-09-07 14:17:20 r, 00.00m,0000565756Hz,0000000000c,0000000.000s, 046.4C,00002195
2016-09-07 14:27:19 r, 00.00m,0000565737Hz,0000000000c,0000000.000s, 045.7C,00002195
2016-09-07 14:37:20 r, 00.00m,0000565671Hz,0000000000c,0000000.000s, 045.4C,00002195
2016-09-07 14:47:21 r, 00.00m,0000565680Hz,0000000000c,0000000.000s, 045.4C,00002195
2016-09-07 14:57:19 r, 00.00m,0000565681Hz,0000000000c,0000000.000s, 045.4C,00002195
2016-09-07 15:07:19 r, 00.00m,0000565608Hz,0000000000c,0000000.000s, 044.4C,00002195
2016-09-07 15:17:19 r, 00.00m,0000565503Hz,0000000000c,0000000.000s, 043.8C,00002195
2016-09-07 15:27:19 r, 00.00m,0000565385Hz,0000000000c,0000000.000s, 043.1C,00002195
2016-09-07 15:37:19 r, 00.00m,0000565353Hz,0000000000c,0000000.000s, 042.5C,00002195
2016-09-07 15:47:20 r, 00.00m,0000565343Hz,0000000000c,0000000.000s, 042.2C,00002195
2016-09-07 15:57:20 r, 00.00m,0000565269Hz,0000000000c,0000000.000s, 041.5C,00002195
2016-09-07 16:07:20 r, 00.00m,0000565195Hz,0000000000c,0000000.000s, 040.9C,00002195
2016-09-07 16:17:20 r, 00.00m,0000565141Hz,0000000000c,0000000.000s, 040.9C,00002195
2016-09-07 16:27:20 r, 00.00m,0000565220Hz,0000000000c,0000000.000s, 040.2C,00002195
2016-09-07 16:37:20 r, 00.00m,0000565174Hz,0000000000c,0000000.000s, 039.9C,00002195
2016-09-07 16:47:20 r, 00.00m,0000565222Hz,0000000000c,0000000.000s, 040.2C,00002195
2016-09-07 16:57:20 r, 00.00m,0000565257Hz,0000000000c,0000000.000s, 040.6C,00002195
2016-09-07 17:07:20 r, 00.00m,0000565145Hz,0000000000c,0000000.000s, 040.2C,00002195
2016-09-07 17:17:20 r, 00.00m,0000565123Hz,0000000000c,0000000.000s, 039.6C,00002195
2016-09-07 17:27:20 r, 00.00m,0000564987Hz,0000000000c,0000000.000s, 039.0C,00002195
2016-09-07 17:37:20 r, 00.00m,0000564901Hz,0000000000c,0000000.000s, 038.0C,00002195
2016-09-07 17:47:20 r, 00.00m,0000564790Hz,0000000000c,0000000.000s, 037.3C,00002195
2016-09-07 17:57:20 r, 00.00m,0000564737Hz,0000000000c,0000000.000s, 037.0C,00002195
2016-09-07 18:07:20 r, 00.00m,0000564785Hz,0000000000c,0000000.000s, 036.7C,00002195
2016-09-07 18:17:20 r, 05.95m,0000371630Hz,0000000000c,0000000.000s, 036.4C,00002195
2016-09-07 18:27:20 r, 05.95m,0000368970Hz,0000000000c,0000000.000s, 036.4C,00002195
2016-09-07 18:37:22 r, 06.13m,0000314553Hz,0000000000c,0000000.000s, 036.0C,00002195
2016-09-07 18:47:20 r, 06.84m,0000162885Hz,0000000000c,0000000.000s, 035.7C,00002195
2016-09-07 18:57:20 r, 06.00m,0000353106Hz,0000000000c,0000000.000s, 035.1C,00002195
2016-09-07 19:07:20 r, 06.29m,0000273077Hz,0000000000c,0000000.000s, 035.1C,00002195
2016-09-07 19:17:20 r, 07.12m,0000126303Hz,0000000000c,0000000.000s, 034.8C,00002195
2016-09-07 19:27:20 r, 06.94m,0000150493Hz,0000000000c,0000000.000s, 034.4C,00002195
2016-09-07 19:37:20 r, 07.30m,0000107283Hz,0000000000c,0000000.000s, 034.1C,00002195
2016-09-07 19:47:20 r, 08.33m,0000041373Hz,0000000000c,0000000.000s, 034.1C,00002195
2016-09-07 19:57:20 r, 08.79m,0000027141Hz,0000000000c,0000000.000s, 033.8C,00002195
2016-09-07 20:07:20 r, 09.56m,0000013357Hz,0000000000c,0000000.000s, 033.5C,00002195
2016-09-07 20:17:22 r, 11.66m,0000001925Hz,0000000000c,0000000.000s, 032.8C,00002195
2016-09-07 20:27:20 r, 13.38m,0000000394Hz,0000000000c,0000000.000s, 032.5C,00002195
2016-09-07 20:37:20 r, 15.03m,0000000088Hz,0000005345c,0000000.012s, 032.2C,00002195
2016-09-07 20:47:20 r, 15.55m,0000000053Hz,0000008649c,0000000.019s, 031.9C,00002195
2016-09-07 20:57:20 r, 15.66m,0000000048Hz,0000009552c,0000000.021s, 031.9C,00002195
2016-09-07 21:07:20 r, 15.81m,0000000041Hz,0000011001c,0000000.024s, 031.5C,00002195
2016-09-07 21:17:20 r, 15.67m,0000000048Hz,0000009654c,0000000.021s, 031.5C,00002195
2016-09-07 21:27:20 r, 15.52m,0000000054Hz,0000008420c,0000000.018s, 031.2C,00002195
2016-09-07 21:37:20 r, 15.43m,0000000059Hz,0000007732c,0000000.017s, 031.2C,00002195
2016-09-07 21:47:20 r, 15.42m,0000000060Hz,0000007688c,0000000.017s, 031.2C,00002195
2016-09-07 21:57:20 r, 15.27m,0000000069Hz,0000006672c,0000000.014s, 031.2C,00002195
2016-09-07 22:07:20 r, 15.31m,0000000065Hz,0000006972c,0000000.015s, 031.2C,00002195
2016-09-07 22:17:20 r, 15.31m,0000000065Hz,0000006926c,0000000.015s, 031.2C,00002195
2016-09-07 22:27:21 r, 15.55m,0000000053Hz,0000008640c,0000000.019s, 031.2C,00002195
2016-09-07 22:37:20 r, 15.83m,0000000041Hz,0000011259c,0000000.024s, 030.9C,00002195
2016-09-07 22:47:20 r, 15.89m,0000000038Hz,0000011810c,0000000.026s, 030.9C,00002195
2016-09-07 22:57:20 r, 15.98m,0000000036Hz,0000012859c,0000000.028s, 030.6C,00002195
2016-09-07 23:07:20 r, 16.31m,0000000026Hz,0000017454c,0000000.038s, 030.6C,00002195
2016-09-07 23:17:20 r, 16.55m,0000000021Hz,0000021643c,0000000.047s, 030.6C,00002195
2016-09-07 23:27:20 r, 16.75m,0000000018Hz,0000025988c,0000000.056s, 030.6C,00002195
2016-09-07 23:37:20 r, 16.55m,0000000021Hz,0000021864c,0000000.047s, 030.2C,00002195
2016-09-07 23:47:20 r, 16.29m,0000000027Hz,0000017247c,0000000.037s, 030.6C,00002195
2016-09-07 23:57:20 r, 16.46m,0000000023Hz,0000020011c,0000000.043s, 030.6C,00002195
